HST 1 20580U 90037B 26105.41035801 .00003488 00000+0 10894-3 0 9997 2 20580 28.4729 149.3915 0002208 162.5991 197.4680 15.30051403778948 POLAR 1 23802U 96013A 26104.87863871 .00000101 00000+0 00000+0 0 9995 2 23802 79.7908 227.7822 6406941 211.2443 86.1091 1.29845766144039 SWAS 1 25560U 98071A 26105.85407827 .00002349 00000+0 15401-3 0 9999 2 25560 69.8978 28.2098 0006740 321.5574 38.5109 15.09187201487863 CXO 1 25867U 99040B 26108.55302551 .00000845 00000+0 00000+0 0 9998 2 25867 55.2416 118.3602 7940395 310.5754 0.2310 0.37809990 17094 XMM-NEWTON 1 25989U 99066A 26105.52041533 .00000139 00000+0 00000+0 0 9991 2 25989 64.8079 283.7888 4696661 66.0314 0.0348 0.50125345 22690 TERRA 1 25994U 99068A 26105.91129032 .00000197 00000+0 49203-4 0 9990 2 25994 97.9519 157.9096 0003571 76.4414 28.7905 14.61053199400510 CLUSTER II-FM7 (SAMBA) 1 26410U 00041A 26107.89154034 .00002775 00000+0 00000+0 0 9997 2 26410 149.5763 40.7788 8981267 257.2151 0.6557 0.44836055 20031 CLUSTER II-FM8 (TANGO) 1 26464U 00045B 26105.37029088 .00002607 00000+0 00000+0 0 9995 2 26464 149.8154 41.2510 8981499 257.5394 0.5870 0.44407628 20010 ODIN 1 26702U 01007A 26105.85465348 .00030227 00000+0 34307-3 0 9995 2 26702 97.3989 143.5131 0003420 63.2232 296.9376 15.62306779379635 TIMED 1 26998U 01055B 26105.85025685 .00000686 00000+0 66062-4 0 9991 2 26998 74.0696 0.5219 0002212 226.2975 133.8027 14.95148965321502 CORIOLIS 1 27640U 03001A 26105.55346230 .00000074 00000+0 55334-4 0 9999 2 27640 98.7151 113.3903 0014689 37.4058 322.8138 14.19926892205338 SORCE 1 27651U 03004A 26105.83603715 .00001612 00000+0 12721-3 0 9990 2 27651 39.9905 257.3194 0018071 321.2955 38.6543 15.03371528262513 MOST 1 27843U 03031D 26105.98032415 .00000037 00000+0 36998-4 0 9995 2 27843 98.7071 114.5698 0010957 74.1629 286.0755 14.21309338181875 SCISAT 1 1 27858U 03036A 26105.69172609 .00000326 00000+0 46335-4 0 9991 2 27858 73.9287 295.5078 0006987 4.4053 355.7184 14.81375025222195 SWIFT 1 28485U 04047A 26105.86433168 .00030420 00000+0 31340-3 0 9997 2 28485 20.5535 303.5426 0002211 142.3626 217.6974 15.62799727177086 HINODE (SOLAR-B) 1 29479U 06041A 26105.63836572 .00000327 00000+0 64756-4 0 9999 2 29479 98.0591 122.7067 0018739 124.1923 236.1061 14.68532943 45698 SHIJIAN-6 02A (SJ-6 02A) 1 29505U 06046A 26105.93849015 .00002093 00000+0 11184-3 0 9991 2 29505 97.6430 146.5518 0003294 26.0667 334.0731 15.16237380 62833 SHIJIAN-6 02B (SJ-6 02B) 1 29506U 06046B 26105.96070961 .00001311 00000+0 10687-3 0 9990 2 29506 97.7126 135.4158 0011396 278.3319 81.6612 15.01178977 61407 FGRST (GLAST) 1 33053U 08029A 26105.16571697 .00002189 00000+0 75275-4 0 9998 2 33053 25.5824 281.9555 0007858 305.7362 54.2445 15.23605641986214 SDO 1 36395U 10005A 26105.43317678 -.00000035 00000+0 00000+0 0 9992 2 36395 34.5208 87.2889 0000634 41.1720 129.3201 1.00273216 59431 CRYOSAT 2 1 36508U 10013A 26105.91558770 .00000060 00000+0 14081-4 0 9996 2 36508 92.0272 262.1933 0002568 95.6074 264.5426 14.51902682849046 X-SAT 1 37389U 11015C 26105.95289422 -.00000064 00000+0 -98032-5 0 9991 2 37389 98.3470 85.9564 0014237 160.7892 199.3828 14.25187072778818 GCOM-W1 (SHIZUKU) 1 38337U 12025A 26105.81049925 .00000255 00000+0 66619-4 0 9999 2 38337 98.1960 47.3241 0001590 115.1222 266.4574 14.57125185739955 NUSTAR 1 38358U 12031A 26106.00002315 .00003963 00000+0 19501-3 0 9999 2 38358 6.0255 140.3979 0009255 265.3201 307.4387 15.08201438 2916 NEOSSAT 1 39089U 13009D 26105.76997769 .00000112 00000+0 53553-4 0 9994 2 39089 98.4164 287.2896 0012159 74.6040 285.6489 14.35804259687783 BRITE-AUSTRIA 1 39091U 13009F 26105.93888257 .00000096 00000+0 47318-4 0 9990 2 39091 98.3980 286.9187 0011307 68.9079 291.3315 14.36516679688119 IRIS 1 39197U 13033A 26105.80423304 .00000633 00000+0 78905-4 0 9991 2 39197 97.9376 305.2668 0024923 160.0976 200.1217 14.85754153691115 HISAKI (SPRINT-A) 1 39253U 13049A 26105.89513268 .00000130 00000+0 84884-4 0 9994 2 39253 29.7189 176.7052 0136567 231.8962 126.9225 13.55536356622961 CASSIOPE 1 39265U 13055A 26105.87474315 .00017648 -44033-6 20725-3 0 9998 2 39265 80.9146 142.1399 0304453 271.5883 85.0500 15.21327705658186 STSAT-3 1 39422U 13066G 26105.91327381 .00001418 00000+0 11153-3 0 9991 2 39422 97.6174 76.8554 0008074 234.5381 125.5091 15.02399293674852 SWARM B 1 39451U 13067A 26105.93244049 .00002038 00000+0 72917-4 0 9990 2 39451 87.7492 1.2134 0002420 79.8266 280.3256 15.28185092673731 SWARM A 1 39452U 13067B 26105.86477200 .00007046 00000+0 12657-3 0 9998 2 39452 87.3294 79.3667 0003693 92.8570 267.3113 15.49650941696590 SWARM C 1 39453U 13067C 26105.86471421 .00007185 00000+0 12909-3 0 9992 2 39453 87.3294 77.9478 0003714 92.9882 267.1804 15.49650017696551 BRITE-CA1 (TORONTO) 1 40020U 14033L 26105.93479179 .00000607 00000+0 98579-4 0 9994 2 40020 97.9637 236.0489 0080012 115.9022 245.0461 14.72578857633055 OCO 2 1 40059U 14035A 26105.87183395 .00000222 00000+0 59269-4 0 9999 2 40059 98.1978 48.1297 0001638 85.0736 275.0649 14.57137434626972 BRITE-PL2 (HEWELIUSZ) 1 40119U 14049B 26105.77069192 .00000998 00000+0 98229-4 0 9997 2 40119 97.9020 217.3268 0013056 320.8215 39.2058 14.94360680632121 MMS 1 1 40482U 15011A 26106.00002315 -.00000555 00000+0 00000+0 0 9996 2 40482 71.4675 349.6068 8377157 166.2113 74.5485 0.28353692 1321 MMS 2 1 40483U 15011B 26106.00002315 -.00000555 00000+0 00000+0 0 9997 2 40483 71.4678 349.6090 8377911 166.2171 74.5340 0.28353713 1326 MMS 3 1 40484U 15011C 26106.00002315 -.00000555 00000+0 00000+0 0 9998 2 40484 71.4705 349.6136 8377151 166.2114 74.5376 0.28353672 1325 MMS 4 1 40485U 15011D 26106.00002315 -.00000555 00000+0 00000+0 0 9999 2 40485 71.4677 349.6090 8376700 166.2190 74.5248 0.28353650 1320 ASTROSAT 1 40930U 15052A 26105.79382631 .00001283 00000+0 74747-4 0 9998 2 40930 5.9966 244.4329 0008354 226.9615 132.9813 14.82395693570551 DAMPE 1 41173U 15078A 26106.00004994 .00000803 00000+0 29719-4 0 9990 2 41173 97.4578 111.1651 0010570 302.4918 57.5300 15.30627985575030 PISAT 1 41784U 16059B 26105.95223716 .00000596 00000+0 10930-3 0 9999 2 41784 97.8192 109.0839 0030157 46.5742 313.7967 14.68867771510609 HXMT (HUIYAN) 1 42758U 17034A 26105.50097419 .00002382 00000+0 12576-3 0 9998 2 42758 43.0132 171.9405 0030401 108.2602 252.1559 15.17929011488134 FLYING LAPTOP 1 42831U 17042G 26105.91869032 .00001992 00000+0 16098-3 0 9991 2 42831 97.4400 263.9715 0019027 338.1450 21.8961 15.00760887477119 ZHANGHENG 1-01 (CSES-1) 1 43194U 18015C 26105.96069648 .00004559 00000+0 20719-3 0 9992 2 43194 97.6809 270.4024 0019080 111.0903 249.2374 15.21126171455185 SALSAT 1 46495U 20068K 26105.92157901 .00004464 00000+0 16187-3 0 9995 2 46495 97.8861 105.2420 0010755 151.8873 208.2948 15.28876884305844 IXPE 1 49954U 21121A 26105.91668981 .00007200 00000+0 37891-3 0 9999 2 49954 0.2294 68.0944 0006974 218.4689 144.0389 15.09667311 5828